Flag for U.S.A. Weather past 2 weeks in Fort Worth, Texas, U.S.A.

Now
87 °F

Broken clouds.


Feels Like: 91 °F
Forecast: 75 / 85 °F
Wind: 9 mph from Southeast

Location: Meacham International Airport

Current Time: Sep 17, 2014 at 7:00:35 PM

Latest Report: Sep 17, 2014 at 5:53 PM


Visibility: 10 mi

Pressure: 29.83 "Hg

Humidity: 55%

Dew point: 69 °F

Location of Fort WorthLocation

Historic Weather in Fort Worth — Graph

°F

Fort Worth temperature yesterday

Maximum temperature yesterday: 90 °F (at 4:53 PM)
Minimum temperature yesterday: 75 °F (at 6:53 AM)
Average temperature yesterday: 82 °F

Past Weeks' High & Low Weather Summary

 TemperatureHumidityPressure
High102 °F (Sep 10, 4:53 PM)94% (Sep 12, 1:02 PM)30.29 "Hg (Sep 12, 1:02 PM)
Low57 °F (Sep 13, 6:53 AM)31% (Sep 10, 4:53 PM)29.68 "Hg (Sep 10, 5:53 PM)
Average81 °F64%29.99 "Hg
* Reported Sep 2 5:53 PM — Sep 17 5:53 PM, Fort Worth, Weather by CustomWeather, © 2014

Note: Actual official high and low records may vary slightly from our data, if they occured in-between our weather recording intervals... More about our weather records

Advertising

Fort Worth weather history for previous 24 hours

 ConditionsComfort  
Time TempWeatherWind HumidityBarometerVisibility
5:53 PM
Sep 17
87 °FBroken clouds.9 mph55%29.83 "Hg10 mi
4:53 PM92 °FSunny.6 mph44%29.81 "Hg10 mi
3:53 PM94 °FSunny.8 mph40%29.82 "Hg10 mi
2:53 PM93 °FPassing clouds.3 mph41%29.85 "Hg10 mi
1:53 PM91 °FScattered clouds.No wind45%29.88 "Hg10 mi
12:53 PM89 °FSunny.5 mph50%29.91 "Hg10 mi
11:53 AM86 °FSunny.No wind59%29.92 "Hg10 mi
10:53 AM82 °FSunny.5 mph70%29.94 "Hg10 mi
9:53 AM80 °FSunny.6 mph74%29.94 "Hg10 mi
8:53 AM77 °FSunny.5 mph85%29.94 "Hg9 mi
7:53 AM74 °FClear.5 mph91%29.94 "Hg9 mi
6:53 AM76 °FClear.No wind85%29.93 "Hg10 mi
5:53 AM75 °FClear.6 mph85%29.93 "Hg10 mi
4:53 AM76 °FClear.3 mph85%29.92 "Hg10 mi
3:53 AM77 °FClear.5 mph82%29.93 "Hg10 mi
2:53 AM78 °FClear.6 mph79%29.94 "Hg10 mi
1:53 AM79 °FClear.6 mph77%29.95 "Hg10 mi
12:53 AM81 °FClear.10 mph69%29.96 "Hg10 mi
11:53 PM
Sep 16
81 °FClear.9 mph67%29.97 "Hg10 mi
10:53 PM82 °FClear.10 mph63%29.98 "Hg10 mi
9:53 PM82 °FClear.7 mph63%29.98 "Hg10 mi
8:53 PM83 °FClear.6 mph61%29.96 "Hg10 mi
7:53 PM85 °FSunny.6 mph55%29.94 "Hg10 mi
Weather by CustomWeather, © 2014

See weather overviewHow to use our weather pages